Theta_e
284 284 284 283 283 284 284 284 284 284 283 284 283 283 281 281 278 276 276 278 279 282 284 282 285 288 288 288 289 288 288 289 289 289 288 288 288 290 292 293 294 295 295 296 296 296 296 297 297 297 298 299 299 300 300 301 301 302 303 305 306 307 308 308 309 310 311 311 312 311 312 315 317 317
283 283 283 283 283 283 283 283 283 283 283 282 283 282 282 282 279 278 276 277 280 280 284 284 283 286 286 287 287 287 287 289 289 288 288 287 287 290 291 292 293 293 294 295 294 295 295 296 296 296 297 298 299 300 300 300 301 301 303 305 305 306 307 307 308 309 309 311 312 312 311 311 315 316
282 282 281 282 281 282 282 282 282 282 282 282 282 282 282 281 281 279 278 276 279 282 280 283 285 284 285 286 286 287 287 287 287 287 287 287 289 289 289 290 290 292 293 293 293 294 295 295 295 296 296 297 297 298 298 299 299 300 301 302 304 304 306 306 306 306 308 309 310 311 312 312 314 316
282 281 280 281 280 281 281 281 281 281 281 282 281 281 281 281 281 280 279 277 277 281 281 282 283 284 284 285 284 284 285 287 287 286 286 286 287 286 286 288 289 290 291 292 293 293 293 294 294 294 294 295 296 297 297 298 299 299 300 302 302 304 303 304 305 305 306 307 309 310 310 311 313 315
281 280 279 279 280 281 280 280 280 280 280 280 280 280 280 280 280 279 278 276 276 279 281 281 281 283 283 282 283 283 283 284 284 285 284 285 285 285 285 286 288 289 290 291 291 292 292 293 293 294 294 295 295 296 297 297 297 299 300 300 301 302 303 303 304 304 305 306 307 309 309 310 312 315
280 279 278 279 279 280 279 279 278 279 279 279 279 279 279 278 278 279 277 276 276 275 278 278 281 280 282 280 282 281 281 281 282 282 283 284 284 284 284 285 285 288 289 290 291 292 293 293 294 294 293 294 295 295 296 296 296 298 298 299 299 300 301 301 302 303 303 304 305 307 308 311 313 314
278 278 278 278 278 279 277 277 278 278 278 278 278 277 278 277 277 278 278 276 275 275 275 278 277 278 279 279 279 280 281 281 281 281 281 282 283 284 284 284 284 287 289 290 291 292 292 292 293 293 293 293 294 294 294 294 295 296 297 297 298 299 299 300 301 301 302 303 304 306 306 307 310 312
277 277 277 277 277 277 276 276 277 277 277 277 276 276 276 276 276 277 277 277 276 275 274 276 276 277 277 278 279 280 280 279 279 280 280 281 281 281 282 282 283 286 289 289 289 290 290 291 291 292 292 292 293 293 294 294 294 294 295 295 296 297 298 299 299 300 300 302 303 304 305 307 307 309
277 277 277 277 277 276 275 276 276 276 275 276 275 275 276 276 276 276 276 276 276 275 274 274 276 277 276 277 278 278 277 278 278 279 278 279 279 280 282 283 283 284 285 285 286 287 288 289 290 291 291 292 292 293 293 293 293 293 294 294 294 295 296 296 297 298 299 299 300 301 303 305 306 307
277 277 276 276 276 276 275 275 275 275 275 275 275 275 275 275 275 275 275 275 275 274 274 273 273 274 274 274 275 276 276 275 275 275 277 278 279 279 278 279 280 281 282 283 283 284 285 287 288 290 290 291 291 292 291 292 292 292 291 292 293 294 294 295 296 297 297 298 299 299 301 303 305 305
277 277 277 276 276 275 275 275 275 275 274 274 274 274 274 274 274 273 273 273 273 273 272 272 273 272 273 274 272 275 276 276 275 274 274 275 277 277 277 277 279 280 280 281 282 282 283 284 285 286 288 290 291 291 291 291 292 291 292 292 292 292 293 294 294 295 296 296 297 298 299 300 302 304
277 277 277 276 276 276 276 275 275 274 274 274 273 274 274 273 273 272 273 272 272 272 271 271 271 272 272 273 274 275 274 273 273 275 274 272 273 274 276 276 276 277 278 277 278 281 282 282 283 285 286 286 286 287 287 288 290 290 291 291 292 293 293 294 294 294 294 295 296 297 297 299 300 302
277 276 276 276 276 276 277 277 276 276 276 274 272 273 273 273 272 272 272 271 271 270 270 270 271 271 271 271 271 271 271 271 271 273 274 272 274 274 274 275 277 277 276 277 277 278 279 278 279 279 279 281 282 283 285 285 287 289 291 291 292 293 293 293 293 294 294 295 295 296 296 297 298 299
276 276 276 276 277 277 276 276 276 276 276 276 275 274 273 273 272 271 270 270 270 270 269 269 270 269 269 270 271 271 271 272 273 272 273 272 273 274 273 274 276 277 277 276 275 276 278 278 277 278 278 280 281 281 281 282 284 286 288 290 291 291 291 292 292 292 293 293 294 295 295 296 296 298
275 275 276 275 275 275 275 274 275 275 275 276 276 276 276 275 273 271 270 270 270 269 269 270 270 269 269 270 271 271 272 273 272 272 273 273 273 272 271 270 274 277 277 275 275 275 278 278 276 277 277 279 280 281 281 284 285 286 287 288 289 289 290 291 291 292 292 292 292 292 293 294 295 296
275 275 274 274 274 274 274 273 273 274 275 275 275 275 275 275 275 275 273 271 270 270 269 269 270 270 270 270 272 272 272 272 273 273 273 273 272 272 271 272 271 275 278 275 274 274 277 278 277 276 277 278 279 281 283 286 286 287 288 288 289 289 289 290 290 291 291 292 292 292 293 293 294 295
274 273 273 273 273 273 274 274 273 273 272 274 275 275 275 275 275 275 276 276 274 273 271 271 270 271 272 271 272 273 273 274 272 273 272 273 273 273 272 273 273 275 278 276 274 273 276 277 276 275 277 278 279 280 282 284 286 287 287 288 288 289 289 289 290 290 291 291 292 292 293 293 293 293
273 272 272 272 272 273 273 273 273 272 272 272 272 273 273 273 274 276 276 277 277 276 274 273 271 273 274 272 273 274 275 274 272 272 272 273 273 273 273 274 275 276 278 275 275 273 275 276 275 274 276 277 278 278 281 283 285 286 286 286 286 288 288 289 289 290 290 291 291 292 292 292 293 293
272 272 272 272 271 272 272 272 273 273 273 273 273 273 273 273 273 273 273 274 274 274 274 274 274 274 275 275 275 275 276 275 275 275 274 274 274 275 276 276 276 276 278 277 275 271 274 276 274 274 275 277 277 278 280 283 284 284 284 285 285 286 287 288 289 289 290 290 290 291 291 291 292 293
272 272 272 272 272 272 272 273 275 275 274 274 273 273 273 273 274 274 276 278 278 276 276 275 275 275 276 277 276 277 277 276 276 276 276 276 274 273 272 271 274 274 277 277 275 272 273 275 274 274 276 276 276 277 277 281 283 284 284 284 286 286 287 288 288 289 289 290 290 290 291 291 291 292
272 272 272 272 272 272 272 274 276 277 277 274 274 274 274 274 274 274 276 279 280 281 281 281 281 281 282 282 282 282 283 281 280 278 276 274 274 273 271 272 272 273 275 276 276 274 272 275 274 274 275 275 275 276 276 277 281 283 283 284 285 286 286 286 287 288 289 289 289 290 290 291 291 291
272 273 274 274 273 272 273 276 277 278 277 275 275 274 274 273 273 275 276 277 277 280 280 280 280 281 281 281 281 281 282 282 280 276 273 274 274 272 272 270 272 273 274 275 277 273 272 274 275 274 275 275 275 275 276 277 278 281 281 282 283 283 284 284 285 286 287 289 289 290 290 290 290 289
272 272 273 274 275 275 275 277 278 279 277 275 275 275 275 274 273 274 275 275 275 275 276 276 276 277 278 278 277 278 280 280 280 277 276 276 274 272 272 272 272 270 272 275 277 272 273 273 274 274 272 270 274 276 276 276 276 277 277 277 278 281 283 284 284 285 285 286 288 289 290 290 290 288
272 272 273 274 276 277 277 278 278 278 279 276 276 275 273 272 271 274 274 275 274 274 274 274 274 274 275 275 275 275 275 276 277 277 276 276 275 273 272 272 272 270 271 275 277 273 274 274 273 275 273 270 269 273 275 275 276 276 277 277 276 280 281 281 281 282 283 285 286 287 288 289 289 287
272 272 273 274 276 277 277 278 278 278 278 278 275 274 272 272 274 276 273 273 274 272 271 271 271 271 272 272 273 273 273 274 275 275 276 276 275 274 273 272 272 272 273 276 278 275 272 273 272 273 273 272 272 271 273 274 275 275 276 276 276 276 276 277 278 277 281 282 284 286 287 288 289 288
272 272 273 273 275 277 277 277 278 277 277 277 274 272 275 276 276 273 272 270 270 269 269 269 269 269 269 269 270 271 272 273 273 274 274 275 275 275 275 273 272 271 271 275 278 275 273 271 272 271 271 270 270 271 270 271 273 274 275 275 275 276 276 276 276 277 277 278 279 282 284 287 287 288
272 273 274 274 276 276 277 276 276 276 276 274 272 275 275 275 275 272 268 268 268 267 267 267 266 267 268 268 268 269 270 271 272 272 273 273 274 274 275 275 275 273 274 275 276 275 273 271 273 271 270 271 269 270 270 269 270 273 273 274 274 275 276 276 275 276 277 278 278 283 284 285 287 288
273 273 274 274 276 276 276 275 275 275 273 272 273 273 273 273 271 268 267 266 266 265 265 265 265 266 267 267 267 268 269 270 271 271 272 272 273 273 273 273 274 274 274 274 275 274 274 272 272 273 272 271 269 268 268 271 272 272 271 273 274 274 275 275 275 275 276 277 277 277 279 280 282 284
274 275 276 276 275 274 274 274 273 271 270 271 272 272 272 270 266 265 265 264 264 263 263 263 264 264 265 266 267 268 268 269 270 270 270 271 272 272 273 273 274 274 274 274 274 274 274 273 272 273 273 272 271 271 270 269 271 271 272 271 271 273 274 275 275 275 275 276 276 276 277 279 281 284
276 276 275 274 274 272 271 269 268 267 267 270 271 270 269 266 265 264 264 264 263 263 263 263 263 264 265 266 266 267 268 267 268 268 268 269 269 270 270 270 271 273 274 275 275 275 275 274 274 273 273 273 272 271 271 271 270 272 272 272 272 273 274 274 274 274 275 275 276 277 278 279 281 283
273 273 272 271 272 272 271 270 270 269 269 267 266 266 265 265 264 264 264 264 263 263 263 263 264 264 265 266 266 265 266 266 266 267 268 267 268 269 269 269 269 270 272 274 275 276 276 276 275 275 272 272 273 272 272 272 271 271 272 272 272 269 272 274 274 274 274 275 275 276 278 279 280 282
271 269 270 269 267 266 265 265 264 265 265 265 265 264 264 264 265 265 266 266 265 264 264 264 264 264 265 264 264 265 265 265 266 267 267 267 267 268 269 268 267 269 270 272 273 276 277 276 276 275 275 274 272 272 273 272 271 271 271 272 272 273 273 273 274 274 275 275 274 274 275 276 277 280
268 268 266 265 265 264 263 263 263 264 264 264 264 262 262 263 263 263 263 262 263 264 264 263 263 263 264 264 265 265 265 265 266 267 267 268 267 268 268 267 267 267 267 269 271 273 275 276 277 276 276 275 275 274 272 271 272 272 272 272 272 272 273 275 275 275 276 275 274 274 274 276 278 280
267 265 264 264 263 263 262 262 263 263 263 262 262 263 265 264 262 263 263 263 263 264 263 263 263 263 264 264 264 265 265 265 266 267 268 266 267 266 266 265 266 267 268 268 270 271 273 274 275 275 276 276 276 275 274 272 271 272 273 273 273 272 274 275 275 275 275 274 274 273 274 275 278 280
265 264 263 263 263 263 262 262 262 263 262 262 262 262 262 262 262 263 262 263 263 263 263 263 263 264 264 264 265 264 265 265 265 266 266 266 266 266 265 265 265 266 267 267 269 270 272 272 273 273 273 274 273 275 278 276 273 273 273 273 273 273 273 275 275 275 275 275 275 273 274 275 276 279
264 264 263 262 262 262 262 262 262 262 261 261 261 261 261 261 262 262 262 263 262 262 262 262 263 264 264 264 265 265 265 265 265 265 265 265 265 265 265 265 266 266 267 267 268 269 270 271 271 271 270 270 270 270 272 279 278 274 273 272 273 273 274 275 275 275 275 275 276 275 274 273 275 278
263 263 263 262 262 262 261 261 261 261 260 260 261 260 260 260 261 262 262 263 262 262 263 264 264 264 265 265 265 265 265 265 264 264 264 265 265 265 264 265 265 266 266 267 268 269 270 269 270 270 270 270 269 269 271 275 278 280 276 274 274 275 275 275 275 274 275 276 275 276 275 275 276 278
262 262 262 262 261 261 261 261 261 260 260 260 260 260 261 261 261 261 262 262 262 262 263 263 264 265 265 265 264 264 265 265 265 264 264 265 264 264 264 264 264 265 266 267 268 268 269 269 269 270 269 268 268 269 270 273 275 277 281 278 275 276 277 276 274 274 275 276 276 277 277 276 277 278
261 261 261 261 261 260 260 260 260 260 259 260 260 260 260 260 260 261 261 261 262 262 263 263 264 264 265 265 265 265 264 264 264 264 264 264 264 264 264 264 264 265 266 266 267 268 268 268 269 270 270 270 269 270 271 271 272 275 278 280 278 277 276 276 275 275 275 275 277 278 279 280 281 283
261 261 261 260 260 260 260 260 260 260 259 259 260 260 259 260 260 260 260 261 261 262 263 263 264 264 264 265 265 265 265 264 264 264 264 264 265 265 265 265 265 265 265 265 265 266 267 268 269 270 271 271 272 273 273 273 274 276 277 279 281 280 278 277 276 276 276 277 278 277 277 279 277 279
261 260 260 260 260 260 259 259 259 259 259 259 259 260 260 260 259 259 260 261 262 262 262 263 263 264 264 264 264 264 264 264 264 264 265 265 265 265 265 265 265 265 265 264 265 266 266 268 271 274 273 273 274 274 273 272 272 274 275 277 281 282 282 282 279 278 278 279 279 278 277 277 277 277
260 259 259 259 259 259 259 258 258 258 258 259 259 259 259 259 259 261 261 262 261 262 262 263 263 263 263 264 264 264 264 264 264 264 264 264 264 264 265 265 264 265 265 264 265 266 268 270 271 272 272 273 273 272 271 272 272 273 275 277 277 281 282 282 282 281 280 278 277 276 276 276 277 276
259 259 259 259 259 259 258 258 258 258 258 258 258 258 258 258 259 259 259 260 260 261 261 262 263 263 263 263 264 264 264 264 264 264 264 264 264 263 263 264 264 265 265 266 267 268 269 270 271 272 272 272 272 272 271 272 273 274 274 275 275 276 277 279 280 280 280 280 280 279 278 277 275 273
259 258 258 258 258 258 257 257 257 258 258 258 258 258 258 258 258 258 259 259 259 260 261 262 262 263 263 263 263 264 264 264 264 264 264 264 264 264 264 264 265 265 266 266 266 267 269 270 271 271 270 270 271 271 271 272 271 272 273 275 274 275 274 274 274 276 277 277 279 279 280 280 280 280
258 258 258 258 258 257 257 257 257 257 257 257 257 257 258 258 258 258 258 258 259 260 260 261 262 262 263 263 262 262 264 265 265 264 264 264 264 264 264 264 264 265 265 266 266 267 269 269 269 270 270 270 271 271 272 272 272 272 272 273 273 273 272 273 272 271 271 271 275 279 280 280 280 280
Wind_Speed
3 3 3 4 4 4 4 4 4 4 5 5 5 5 6 6 8 10 11 8 9 8 9 9 7 7 8 10 9 9 8 10 12 9 9 10 10 13 19 21 21 21 22 24 24 24 23 22 21 21 21 21 21 21 21 21 20 21 22 22 22 23 22 22 22 22 22 22 21 21 21 22 26 22
3 3 4 4 4 4 4 4 5 4 5 5 5 5 6 5 7 8 10 12 7 9 7 7 9 9 10 11 12 10 10 10 11 9 11 10 10 16 19 21 22 24 25 25 24 25 24 23 22 22 22 22 22 22 22 22 22 21 22 23 23 23 22 22 22 22 22 22 22 22 22 22 24 24
3 4 4 4 4 4 4 5 5 4 4 5 5 6 6 6 7 8 8 12 10 6 10 10 7 9 10 9 11 11 10 12 13 10 9 10 14 17 15 19 22 23 23 22 22 23 24 24 24 24 23 24 24 24 24 23 23 23 22 23 23 22 22 22 21 21 22 23 23 23 23 23 24 27
3 4 5 5 4 5 5 5 5 5 5 5 5 5 6 6 6 7 8 11 16 11 10 12 10 8 10 8 8 11 10 10 14 10 11 13 16 13 13 15 18 20 22 22 23 23 23 23 25 25 25 25 25 25 25 25 24 23 23 22 22 22 22 22 21 21 21 23 24 24 24 23 24 25
4 4 5 5 4 4 5 5 5 6 6 5 5 5 6 6 6 6 8 11 14 14 9 9 10 8 9 10 7 8 9 9 10 12 13 14 12 11 10 11 15 18 20 21 22 23 23 24 24 24 25 25 25 25 25 25 24 23 23 22 22 22 22 22 22 21 21 22 23 24 24 24 25 24
4 4 5 6 5 4 5 6 6 6 6 6 7 6 6 7 7 6 8 10 11 16 14 11 9 8 7 10 7 8 11 11 9 11 12 11 11 11 11 11 11 19 21 21 22 22 23 24 24 24 24 25 25 26 26 25 24 24 23 23 22 22 22 22 22 22 21 21 22 23 25 25 24 25
5 5 5 6 5 4 6 6 6 6 7 6 6 7 7 8 8 7 7 9 11 14 15 13 12 9 7 9 11 10 9 11 11 11 10 11 10 10 12 12 11 17 22 23 23 22 23 23 24 24 24 25 26 26 26 25 24 24 24 23 23 22 22 22 22 22 21 21 22 23 23 24 25 24
5 5 6 5 5 6 6 6 6 6 6 6 7 8 7 8 8 8 7 8 9 11 15 14 12 11 10 10 10 9 10 11 11 9 11 11 12 14 12 12 11 12 19 22 23 23 23 22 22 23 24 24 25 26 26 25 25 24 24 23 23 22 22 22 22 22 21 21 22 22 24 24 24 24
5 5 6 6 6 6 6 7 6 6 7 7 7 8 7 7 8 7 8 9 9 11 14 15 12 11 11 9 10 10 11 11 10 11 12 12 13 12 11 9 9 17 23 22 23 22 23 23 23 23 23 24 24 24 25 25 25 24 24 23 23 23 23 23 22 22 22 21 21 22 23 24 25 25
5 5 6 6 6 6 6 7 7 7 8 7 7 8 8 8 8 9 9 8 9 10 12 13 15 12 11 12 10 10 10 12 13 12 11 11 10 10 11 11 10 9 9 8 10 15 18 20 25 25 24 24 25 25 25 26 26 26 25 24 24 24 24 24 23 22 22 22 21 22 22 23 24 25
6 6 6 6 6 6 6 7 7 7 8 7 8 8 8 8 8 9 8 8 10 11 12 12 12 14 12 10 13 11 11 12 12 13 13 11 9 10 11 13 10 9 11 14 19 19 18 21 19 22 25 23 22 24 23 23 24 23 24 25 25 24 25 24 23 23 23 22 22 21 21 21 23 24
6 6 6 6 6 6 6 5 6 7 8 7 8 8 8 8 8 9 8 9 9 10 11 11 13 12 13 12 10 11 12 12 10 8 11 14 13 12 11 10 12 11 11 12 9 10 13 13 16 20 21 22 24 26 24 23 21 19 20 22 22 22 23 23 23 23 23 22 22 22 21 21 21 24
6 6 6 6 6 6 7 11 11 11 10 9 9 8 8 9 9 9 9 8 9 10 10 12 11 12 13 12 12 12 11 12 12 11 11 13 11 11 11 10 9 10 11 11 11 9 8 10 10 11 11 12 18 19 23 21 23 22 21 20 20 20 20 21 21 21 21 21 21 22 22 22 22 22
7 7 7 6 9 10 11 11 13 13 12 12 10 9 9 9 9 9 9 9 9 9 11 11 11 13 13 12 12 13 13 13 13 13 12 12 12 11 12 11 8 9 10 11 13 11 8 10 11 10 11 11 12 12 12 11 16 20 25 25 24 24 24 22 21 21 21 22 22 21 21 21 22 22
7 7 7 6 7 8 9 8 10 10 12 13 14 15 14 12 10 9 9 10 10 10 11 11 11 12 15 15 13 13 13 12 13 12 11 12 12 12 13 14 11 6 10 12 13 13 9 10 12 11 10 10 10 10 11 19 22 23 23 25 26 28 28 26 26 24 23 22 22 22 22 23 22 22
7 7 7 6 5 6 6 7 8 10 12 12 13 14 14 13 14 14 11 11 11 10 10 11 12 13 14 16 14 13 13 13 13 12 12 13 13 14 13 13 14 10 10 14 17 19 10 10 12 12 10 10 9 11 17 23 23 23 23 23 24 25 25 26 27 28 27 26 24 23 23 23 23 22
8 7 7 6 6 6 9 8 7 8 8 10 13 14 15 14 14 15 17 18 14 13 12 13 14 14 15 17 15 14 14 14 15 14 14 13 13 14 16 15 17 14 9 15 14 18 14 9 13 12 9 9 9 11 16 22 23 23 23 24 24 25 24 25 26 28 28 26 27 26 25 24 23 22
7 7 7 7 7 7 7 7 8 8 8 10 10 10 10 11 15 18 20 21 23 21 16 16 17 17 15 17 17 15 16 16 14 14 14 13 15 15 16 18 16 13 11 13 14 16 10 9 12 13 10 9 11 10 15 22 22 23 24 25 26 26 26 25 25 26 27 27 26 26 26 26 25 24
8 8 8 8 8 8 8 7 9 10 11 10 9 10 11 11 13 13 13 13 12 13 13 16 17 17 17 17 18 17 15 17 15 15 16 16 15 16 18 14 14 14 11 12 11 15 11 8 12 13 11 10 10 9 14 20 22 23 23 25 27 27 26 26 25 25 25 26 28 27 27 26 26 26
8 7 8 8 8 8 9 11 15 15 12 11 11 12 13 11 12 13 15 20 20 17 16 16 17 17 18 21 19 18 16 13 14 15 15 15 14 14 12 11 8 9 7 9 10 11 11 8 12 13 10 11 12 10 8 15 20 22 24 25 25 25 24 24 25 25 25 26 27 27 26 26 27 27
8 8 8 8 8 10 10 13 17 17 18 12 12 13 13 12 11 10 10 19 27 28 29 30 30 32 32 30 31 30 32 23 17 13 13 12 10 13 15 14 10 10 9 7 8 11 12 9 11 14 11 12 12 10 9 8 14 20 22 24 23 23 24 26 26 25 26 26 26 27 26 26 26 25
8 9 13 12 11 12 12 16 18 19 16 11 12 13 15 16 14 13 10 8 11 19 23 25 27 28 28 30 30 29 27 26 20 12 14 12 11 14 12 15 11 11 8 10 7 10 10 10 9 12 11 12 9 9 9 10 11 16 14 20 25 27 28 28 26 26 26 26 24 24 26 25 24 16
7 8 9 13 13 12 14 18 18 20 17 12 13 12 12 13 13 11 11 13 14 13 12 13 14 16 17 15 13 14 23 25 22 15 14 13 12 14 13 13 12 12 7 7 6 10 9 9 9 9 12 12 9 6 8 7 7 9 10 12 13 20 23 24 24 24 24 25 27 26 26 26 22 11
7 8 9 10 12 15 16 17 19 20 22 15 13 12 12 13 14 12 13 14 14 13 13 13 12 12 13 13 14 14 14 14 14 16 14 12 12 13 13 12 11 12 9 7 10 10 9 8 11 6 10 12 13 5 7 9 10 10 9 11 11 15 19 20 19 26 28 26 26 27 27 25 22 10
7 7 7 8 12 15 17 18 20 22 22 21 14 12 11 12 16 19 13 14 18 12 12 12 12 11 11 10 10 10 11 11 11 12 13 13 13 13 12 11 11 11 9 9 15 9 10 8 10 8 10 10 12 12 10 11 11 11 10 10 12 11 10 10 9 11 16 24 25 26 27 28 27 17
7 7 7 7 11 16 17 19 21 22 22 23 13 13 19 22 23 15 11 10 9 10 10 10 10 10 10 10 10 10 10 10 11 10 11 12 13 13 12 13 13 12 10 8 15 10 10 9 9 10 10 11 13 10 13 9 11 11 11 10 10 10 10 11 11 12 11 11 12 14 18 25 27 28
8 7 8 9 13 16 19 20 21 21 23 18 11 19 20 20 21 16 7 9 9 8 9 10 10 10 10 10 10 10 10 10 10 12 12 12 13 13 13 13 13 14 13 11 9 10 10 11 9 11 12 11 13 11 12 12 10 8 10 9 10 10 10 10 11 11 10 11 12 22 24 25 28 30
8 7 7 8 16 18 19 21 21 21 18 12 17 17 18 18 16 7 7 6 7 9 9 9 9 9 10 10 10 10 11 11 12 13 14 14 14 14 13 15 15 14 15 13 12 12 13 13 11 11 12 12 13 12 14 12 12 11 11 10 10 9 10 10 11 11 11 11 11 12 12 13 13 14
7 9 13 16 17 17 19 20 18 13 12 14 15 17 16 14 5 5 5 6 6 7 8 9 9 10 10 10 11 12 13 13 13 12 12 12 13 13 14 14 14 14 13 12 13 13 13 13 14 12 11 11 12 12 11 14 11 11 11 12 11 9 9 9 10 11 11 10 11 12 13 13 13 12
14 13 13 16 17 15 14 10 7 8 8 14 16 14 12 5 4 4 5 5 6 7 8 9 10 10 10 11 12 13 13 12 11 11 12 12 12 11 11 11 11 11 11 10 10 11 13 14 13 12 12 11 12 13 12 13 13 10 10 11 12 12 11 10 10 10 10 11 12 12 12 14 15 13
6 7 8 8 14 13 16 14 13 12 11 8 6 4 4 4 4 4 4 6 8 9 8 9 9 9 10 11 12 11 10 11 11 10 11 11 11 11 11 12 13 12 10 10 11 11 11 12 12 12 12 11 11 12 12 12 14 12 13 12 11 12 9 8 10 10 10 11 12 13 13 12 13 15
2 2 5 8 5 4 4 4 3 3 3 5 5 3 3 4 5 7 10 10 6 7 7 8 8 9 9 10 10 10 10 11 11 10 11 11 12 11 11 12 12 12 12 11 10 10 12 12 13 12 12 12 12 12 11 11 13 13 13 13 12 11 11 12 13 13 12 11 12 11 12 13 14 13
3 2 2 3 3 3 3 3 3 3 3 3 4 4 4 3 4 3 3 4 5 6 7 8 9 10 9 10 9 9 10 10 10 10 10 11 11 11 10 12 12 13 13 12 10 10 9 9 10 11 11 11 12 13 12 13 12 11 13 14 12 12 11 11 11 12 12 11 11 11 11 12 13 13
0 1 3 3 3 3 2 3 3 3 3 4 5 4 6 5 3 4 3 4 5 6 7 8 9 9 9 9 9 9 10 10 10 11 13 12 11 11 11 11 12 12 13 13 11 11 11 10 10 10 11 12 12 14 13 13 14 13 13 13 13 14 13 11 12 13 12 11 11 11 11 11 12 12
1 2 3 4 3 3 3 3 3 3 4 4 4 5 5 4 4 5 4 4 5 7 7 9 9 9 9 9 9 10 10 11 11 10 10 10 11 11 11 12 12 12 12 12 12 11 11 11 10 11 11 10 10 10 15 16 13 15 13 13 13 13 13 12 11 11 11 10 10 12 12 11 12 11
3 3 4 4 3 3 3 3 3 3 3 4 4 5 6 6 4 5 5 5 5 7 8 8 9 9 9 9 9 10 10 11 10 10 11 10 10 11 10 11 13 12 12 11 12 11 11 12 11 12 12 11 11 12 11 18 22 14 13 13 12 11 12 11 11 10 10 10 11 12 11 11 11 11
3 4 4 4 3 3 3 3 3 3 3 3 4 4 5 6 6 5 6 8 7 7 8 9 9 9 9 9 10 10 10 10 10 10 11 11 10 11 11 12 13 12 12 12 11 11 11 11 11 12 12 12 12 13 12 8 14 21 15 13 12 11 11 10 9 9 10 10 11 11 12 11 11 11
4 4 4 4 3 3 3 3 3 3 3 3 4 4 5 5 6 7 6 6 6 6 8 8 8 9 9 9 9 10 9 9 9 10 10 10 10 10 11 12 12 12 12 12 11 11 10 11 11 11 11 12 13 13 13 9 9 10 12 11 12 14 12 10 10 10 10 9 10 11 10 11 13 11
4 5 4 4 3 3 3 3 3 3 3 3 4 4 5 5 5 6 6 6 6 7 8 9 9 9 9 9 9 10 10 10 10 10 10 10 10 11 11 11 12 12 12 13 12 11 10 10 10 10 11 11 12 11 12 14 14 16 13 15 13 13 13 11 11 11 10 10 10 9 10 12 13 17
5 4 4 3 3 3 3 3 3 3 3 3 4 4 4 5 5 6 6 7 6 7 8 9 10 10 9 9 10 10 10 11 10 10 10 11 11 12 11 11 11 12 12 13 13 12 11 11 11 10 11 12 14 15 15 15 15 15 15 16 22 18 14 9 10 11 11 9 8 8 10 8 8 7
4 5 4 4 3 3 3 3 3 3 4 4 4 5 5 5 6 6 6 6 7 8 8 8 9 9 9 9 9 10 10 10 10 10 11 11 12 13 15 16 12 11 11 13 12 12 12 11 14 25 23 16 16 16 13 10 11 11 11 11 6 7 10 12 12 9 5 3 4 6 7 8 7 6
4 4 4 3 3 3 3 3 3 3 4 4 4 4 4 5 5 10 10 11 8 7 7 8 8 8 8 9 9 10 10 10 10 11 11 11 11 12 14 12 11 11 11 12 13 13 13 13 14 14 13 13 12 10 10 10 11 11 10 9 6 7 6 12 9 9 6 4 4 4 5 4 3 5
4 4 4 4 3 3 3 4 3 3 4 4 4 4 4 5 5 6 5 7 6 6 7 8 8 8 8 8 9 10 10 10 10 11 12 12 11 11 11 11 12 12 12 12 12 13 13 12 12 11 11 11 10 10 11 10 10 9 10 11 5 0 3 8 10 12 14 16 14 7 4 4 3 3
4 4 4 3 3 4 4 4 4 4 4 4 4 4 4 5 6 6 6 6 6 6 7 7 8 8 8 8 9 10 9 9 9 11 12 11 11 11 11 12 13 12 12 12 13 13 13 11 9 10 11 11 10 10 10 10 10 9 8 7 4 4 2 2 2 6 8 12 18 14 10 9 6 5
4 4 4 4 4 4 4 4 4 4 4 4 4 4 5 5 6 6 6 6 6 7 7 7 8 8 8 8 9 10 10 11 11 11 11 11 11 11 11 12 12 12 12 12 13 13 11 10 10 10 9 10 10 10 9 10 10 8 8 7 6 5 5 5 4 5 5 5 13 17 11 9 6 7
Wind_Direction
324 331 329 316 317 319 333 313 314 314 302 302 302 297 298 307 300 309 308 297 300 308 311 312 315 322 319 314 312 307 297 298 300 296 292 291 290 290 292 293 294 294 293 292 293 291 290 288 287 287 287 287 287 287 286 286 286 287 288 287 287 286 285 284 284 282 284 284 281 278 278 267 253 240
333 324 329 318 316 329 327 319 310 298 301 296 296 297 300 294 286 293 298 296 293 293 288 282 300 313 315 314 310 310 307 299 297 300 300 295 289 289 292 293 293 290 288 287 287 288 287 286 286 286 286 287 286 286 287 286 284 284 284 285 286 286 285 283 282 281 282 281 280 277 273 272 263 247
332 330 323 323 323 331 325 317 312 310 304 303 301 300 295 289 284 287 288 293 286 291 298 293 293 298 298 295 296 304 307 309 312 307 301 302 308 307 296 288 287 287 287 288 286 285 287 288 288 287 287 286 286 286 285 284 283 282 281 281 282 283 283 282 281 282 280 279 279 278 276 270 265 252
323 322 325 324 327 325 324 316 315 313 309 305 300 297 292 287 283 279 281 276 284 296 293 294 300 304 302 304 300 295 298 305 313 318 317 312 310 301 299 293 289 290 290 287 286 286 286 285 286 287 286 286 285 285 284 283 282 282 280 278 278 278 280 279 280 280 278 277 276 275 274 273 267 256
331 327 319 316 318 323 318 317 313 308 305 305 298 294 291 289 287 288 286 286 289 292 289 295 302 316 316 302 299 303 311 316 320 318 311 310 305 301 297 302 298 294 291 289 287 285 285 286 286 287 287 287 287 286 285 283 282 280 279 278 276 277 276 278 278 278 276 276 275 274 274 271 269 257
326 322 315 314 316 324 316 307 302 299 302 301 295 292 295 292 292 294 294 289 290 293 303 300 302 308 309 300 325 336 319 310 309 303 303 301 302 302 305 300 298 299 297 294 292 291 290 289 288 288 290 290 289 288 288 285 282 280 280 278 277 275 275 276 277 277 277 277 276 274 274 276 274 264
317 314 312 308 314 317 308 301 298 298 296 296 298 300 298 293 294 296 291 290 288 292 293 299 305 310 325 318 318 322 310 305 308 305 302 304 305 306 304 300 297 300 301 301 301 298 295 291 289 288 288 289 288 287 287 286 283 281 280 280 278 277 276 275 274 275 275 275 274 272 270 272 276 280
310 304 302 303 313 308 299 299 299 298 302 305 300 296 294 293 295 296 294 288 287 293 296 298 305 312 316 312 309 309 307 305 308 313 310 308 304 301 295 292 289 297 312 316 314 310 306 300 293 290 286 283 283 285 285 285 285 281 279 279 279 278 277 275 275 275 275 275 275 275 272 270 272 272
294 294 293 297 302 301 298 297 299 301 303 296 299 296 299 298 298 300 299 296 293 292 291 296 300 308 306 306 307 313 313 311 308 308 303 300 300 297 297 311 323 326 316 307 304 304 304 302 298 295 295 294 290 287 288 288 288 287 284 280 278 278 278 278 277 276 275 273 273 272 271 268 267 271
288 282 286 290 290 292 292 293 298 300 300 306 300 302 302 305 303 301 300 298 296 294 291 296 302 307 312 314 309 315 316 313 312 306 299 297 300 310 318 313 309 303 306 317 315 313 309 307 307 305 298 292 288 287 286 287 287 287 286 284 282 280 278 275 273 273 273 272 270 269 269 267 264 264
276 279 281 283 281 281 285 291 296 308 309 304 304 307 310 310 308 306 306 307 304 300 298 297 297 302 306 309 308 311 310 305 301 305 308 305 309 310 306 306 306 307 306 301 299 295 294 297 300 300 300 303 303 299 292 286 285 282 281 282 283 280 277 276 273 270 270 270 269 268 268 267 265 262
276 274 275 273 275 274 277 291 305 306 302 305 304 304 305 306 307 306 304 305 302 299 298 296 301 300 301 305 300 302 306 303 300 302 308 307 309 306 300 300 306 306 300 300 300 303 304 301 301 306 308 311 314 316 316 311 305 294 283 282 280 278 275 273 271 271 270 270 270 269 268 267 265 262
273 273 273 273 270 276 283 286 284 281 288 296 295 297 299 302 302 299 300 300 300 295 294 294 295 296 297 300 306 307 306 305 304 308 303 296 297 299 300 301 296 296 298 302 305 307 319 320 314 307 302 301 300 298 297 296 294 293 292 290 286 283 281 278 276 275 274 274 274 273 271 269 267 263
274 270 271 274 276 278 280 280 281 281 281 281 283 287 293 294 295 296 297 296 295 293 292 291 298 297 295 298 301 298 297 296 298 297 299 299 303 303 297 294 297 303 306 303 303 305 313 304 300 298 294 296 298 298 289 285 286 288 293 296 294 292 290 287 285 284 283 281 279 278 276 273 269 266
281 279 276 278 281 281 278 277 281 288 288 286 288 288 286 284 285 292 292 289 288 288 285 289 291 289 290 291 292 292 295 293 291 293 295 297 301 300 303 303 300 290 302 305 302 298 306 301 296 296 290 291 288 284 285 288 289 289 288 290 290 288 287 286 285 283 281 278 276 276 277 276 273 269
278 282 287 285 282 279 279 285 289 286 285 285 284 291 290 286 281 276 277 284 286 282 284 283 280 283 282 286 287 287 287 288 288 288 290 290 291 292 292 292 297 304 307 300 301 296 305 294 291 291 289 285 280 280 286 289 290 290 289 288 288 287 288 287 286 284 280 278 276 274 273 273 273 272
279 284 286 287 283 284 286 283 281 284 289 292 293 297 294 286 280 274 271 274 276 280 276 273 272 271 277 280 280 278 279 281 285 287 284 283 282 284 284 287 291 295 307 297 292 292 298 298 291 286 287 287 284 285 288 291 292 293 293 293 292 290 288 286 285 284 282 280 279 277 274 272 272 272
279 281 285 288 287 287 290 290 291 295 296 297 296 293 285 277 270 268 267 271 275 275 273 272 271 271 266 273 276 274 275 278 278 280 279 280 282 280 279 282 282 289 294 282 287 287 293 292 291 290 294 289 288 286 291 294 294 293 294 295 294 291 289 288 286 286 284 283 280 278 276 275 273 273
275 278 279 279 281 285 288 288 290 295 295 291 282 275 268 261 264 260 255 257 259 259 258 261 263 268 269 268 270 270 266 269 271 274 276 280 280 279 279 277 279 276 254 264 281 286 298 297 289 288 294 294 290 293 294 294 294 293 292 292 293 294 290 287 286 286 285 284 283 280 277 276 275 274
276 279 276 278 282 284 284 288 292 293 295 291 283 277 274 263 260 257 246 249 249 252 256 261 264 264 261 261 262 264 267 267 268 270 270 271 274 275 267 265 269 272 288 284 283 285 290 297 289 291 294 293 291 292 287 293 295 295 294 292 293 294 294 291 287 286 284 283 283 280 277 275 275 274
274 272 276 282 283 288 287 289 292 294 296 292 285 286 285 275 267 259 245 261 267 267 271 271 273 273 278 280 282 286 288 287 283 278 276 271 272 271 281 282 285 285 296 285 285 286 289 294 290 293 292 288 289 294 295 296 299 299 296 295 297 302 310 309 305 298 289 281 279 279 278 276 276 275
271 271 275 277 278 282 285 290 296 299 301 293 292 286 283 284 282 282 274 273 275 277 284 284 287 290 291 291 291 290 291 292 294 291 284 286 284 277 275 283 285 287 282 284 282 276 275 288 286 290 292 292 287 294 297 300 294 295 315 326 321 316 308 301 300 300 300 293 285 280 278 278 278 274
273 278 281 281 280 282 288 295 300 303 305 296 292 297 302 303 305 308 316 313 307 304 300 295 295 291 289 287 286 285 289 288 286 281 279 284 277 277 278 280 290 286 273 277 280 281 285 288 286 297 301 290 283 273 285 289 304 315 303 294 294 293 294 297 306 309 305 295 290 288 283 279 277 270
278 276 278 284 287 291 296 301 305 305 307 310 315 315 308 304 302 311 304 301 303 306 307 304 303 299 297 293 289 287 284 282 278 279 277 276 274 275 276 276 274 275 282 283 286 281 281 277 280 275 277 294 298 301 293 293 292 293 297 295 291 293 298 303 304 300 298 299 292 286 285 283 278 265
277 286 286 288 291 296 301 304 307 311 313 313 312 309 303 298 300 307 309 314 315 308 305 299 297 295 294 293 290 288 286 283 282 280 280 278 278 278 278 278 274 272 274 278 284 280 282 281 283 287 280 276 283 297 293 296 296 292 291 292 293 295 292 289 288 289 294 295 294 289 283 281 278 272
276 281 283 287 294 301 307 310 312 313 313 314 313 302 301 305 311 315 317 316 310 304 303 304 303 304 302 303 303 299 298 299 298 296 290 284 279 277 279 282 284 282 279 281 287 286 288 283 282 286 283 283 283 283 293 287 287 289 286 282 282 286 291 296 295 293 289 286 289 288 286 285 283 280
274 277 281 290 300 305 309 312 313 313 315 316 305 307 313 315 318 322 314 308 307 305 306 303 300 300 300 302 304 301 299 296 293 291 289 290 290 288 286 284 282 283 288 291 290 285 280 278 274 274 277 276 283 287 280 287 286 284 283 283 283 282 283 281 281 286 289 291 289 291 290 285 281 274
270 277 287 295 301 309 313 312 313 314 315 308 309 313 315 318 321 316 311 311 309 308 304 303 304 306 307 307 304 306 308 305 304 300 297 293 290 285 283 282 281 281 281 278 274 268 269 271 270 262 265 272 275 279 284 278 280 283 284 285 281 278 276 275 278 278 279 283 286 286 282 280 274 275
265 272 286 300 307 309 311 312 315 315 308 306 307 310 314 319 312 310 308 309 308 304 305 304 304 302 303 302 301 304 305 302 297 290 286 283 279 275 273 272 269 268 265 261 259 256 256 260 264 265 263 261 264 266 267 276 278 281 281 287 283 275 273 271 272 275 280 279 279 279 276 275 272 270
266 277 293 301 304 306 307 308 303 296 296 299 305 309 313 313 306 304 307 305 305 302 304 302 301 301 303 303 306 305 302 299 300 305 303 304 300 300 296 292 285 278 272 267 257 252 250 253 258 261 262 258 258 265 265 274 273 271 271 266 270 280 268 268 264 265 267 273 274 269 268 273 276 274
268 277 281 285 291 297 298 295 290 292 296 298 293 294 305 301 294 296 296 296 301 302 300 301 301 303 303 303 303 302 302 300 298 299 298 296 296 298 297 294 290 288 280 270 264 260 255 256 258 259 262 263 261 258 265 265 273 273 269 265 266 266 275 274 271 269 270 270 274 278 282 275 271 271
192 232 279 290 287 274 275 280 274 268 271 279 287 289 289 283 285 297 302 301 295 295 296 297 300 300 303 302 301 301 300 299 297 299 298 298 297 297 298 295 294 296 294 290 283 266 254 254 258 259 257 260 264 266 261 260 263 269 270 267 264 265 261 263 268 268 266 266 266 265 267 273 274 274
186 214 260 265 272 264 266 276 278 278 281 285 287 276 265 282 294 293 290 300 300 303 306 305 306 303 301 300 298 296 295 296 299 300 298 297 297 301 298 294 295 297 298 297 294 288 278 268 258 262 263 260 256 258 262 265 259 260 266 269 270 266 264 257 258 262 267 266 263 264 265 264 266 266
165 257 261 259 263 268 265 273 279 286 290 291 296 294 301 301 289 293 298 293 297 305 306 303 304 301 300 297 300 302 303 303 302 305 306 303 303 299 297 296 296 296 296 297 298 296 292 284 278 269 262 257 252 246 247 253 262 264 260 269 266 268 265 261 256 255 256 258 265 266 263 264 264 262
250 269 258 260 255 253 257 261 268 285 291 293 296 299 302 293 295 301 296 295 306 308 303 301 295 294 296 298 302 305 306 305 305 306 303 300 300 298 298 297 295 296 297 296 296 298 297 296 291 285 279 272 269 253 225 229 252 253 263 261 261 262 267 261 257 255 253 257 255 257 260 260 263 266
250 245 251 252 245 241 255 257 262 269 282 288 288 294 301 301 298 297 297 306 310 300 295 292 296 297 299 300 302 302 303 306 305 304 304 303 302 299 297 293 294 294 293 295 298 301 302 301 301 292 287 286 281 280 280 225 221 241 250 257 260 259 260 262 256 252 250 252 254 257 259 255 255 256
231 245 241 240 239 235 243 256 257 262 263 274 280 280 283 292 297 294 294 304 291 289 291 297 296 298 300 303 303 303 303 304 303 305 303 303 299 298 297 298 298 297 296 294 294 295 295 295 297 298 295 291 287 289 282 304 247 226 230 248 261 262 263 265 260 255 246 243 247 249 255 259 261 254
235 230 239 233 234 237 239 246 254 255 259 266 274 276 275 277 288 293 298 294 294 296 298 293 293 300 301 301 302 301 303 301 301 300 302 302 302 301 300 299 297 297 296 294 294 292 294 290 288 287 286 285 290 284 290 289 302 280 243 242 256 268 270 264 260 255 255 244 242 245 247 252 253 255
222 234 228 233 229 228 231 236 240 253 254 259 265 272 278 282 283 291 294 293 295 295 296 297 299 300 301 302 300 303 303 303 303 304 304 302 300 297 296 297 297 298 298 297 295 294 292 290 290 291 288 291 291 303 310 306 298 292 284 264 263 268 266 256 256 254 253 255 249 247 245 247 254 257
225 222 231 226 237 226 240 235 240 243 251 253 259 266 275 279 283 286 289 291 292 293 294 294 298 300 301 304 304 300 298 299 301 301 300 299 299 299 298 297 299 300 299 296 298 298 296 293 294 293 297 293 293 285 282 281 279 278 281 282 267 252 249 250 249 249 253 253 258 257 256 253 250 246
210 223 225 223 227 236 229 240 233 242 248 255 259 265 266 270 278 276 274 281 287 295 294 293 292 294 296 301 302 304 302 303 302 302 302 302 303 304 303 305 301 300 298 298 298 297 296 297 294 295 293 286 281 279 273 263 270 278 287 286 316 335 305 270 251 244 267 294 285 277 276 268 262 259
215 223 229 223 227 233 234 235 241 242 254 254 259 259 266 271 268 280 285 289 286 280 284 289 293 295 298 299 302 303 301 302 303 304 305 304 304 304 305 304 301 302 301 299 299 295 294 290 289 288 287 288 288 289 287 288 284 286 287 299 295 269 13 46 54 65 60 20 353 328 316 300 264 245
218 220 227 228 227 227 230 233 234 238 246 251 253 262 269 272 271 275 275 279 283 288 288 291 293 295 298 302 303 304 301 300 303 305 304 304 304 304 304 303 302 301 300 298 295 294 293 294 293 294 300 296 291 288 288 290 295 303 306 303 288 355 45 34 39 42 39 34 25 19 0 334 333 316
213 220 224 224 225 231 228 233 235 236 244 247 257 258 258 262 269 271 275 278 283 286 288 289 293 294 295 298 302 300 297 299 306 310 308 306 306 304 304 303 303 302 302 301 302 301 298 295 304 312 306 301 304 301 300 305 297 295 294 300 316 323 351 349 9 25 25 24 14 8 20 27 29 35
218 218 220 221 222 229 230 230 234 234 236 244 252 255 259 260 266 271 271 273 276 281 286 289 289 291 294 301 304 301 298 305 311 310 307 305 304 304 303 303 306 307 306 307 305 304 310 316 314 309 303 305 304 298 302 298 296 300 304 317 332 3 6 350 10 23 12 3 6 15 30 22 25 33